Home   Weather   Kranj   Past weeks

Flag for Slovenia Past Weather in Kranj, Slovenia — Yesterday and Last 2 Weeks

Now
27 °F

Broken clouds.


Feels Like: 27 °F
Forecast: 14 / 29 °F
Wind: 1 mph from South

Location: Ljubljana Airport / Brnik

Current Time: Jan 18, 2017 at 9:09:01 am

Latest Report: Jan 18, 2017 at 8:30 am


Visibility: N/A

Pressure: 30.39 "Hg

Humidity: 80%

Dew Point: 21 °F

Location of KranjLocation

Past Weather in Kranj — Graph

°F

Kranj Temperature Yesterday

Maximum temperature yesterday: 37 °F (at 11:30 am)
Minimum temperature yesterday: 25 °F (at 12:00 am)
Average temperature yesterday: 29 °F

High & Low Weather Summary for the Past Weeks

 TemperatureHumidityPressure
High39 °F (Jan 3, 1:30 pm)100% (Jan 4, 6:00 am)30.42 "Hg (Jan 4, 6:00 am)
Low1 °F (Jan 11, 6:30 am)17% (Jan 5, 1:30 pm)29.39 "Hg (Jan 13, 1:00 pm)
Average23 °F74%30.05 "Hg
* Reported Jan 3 8:00 am — Jan 18 8:00 am, Kranj, Weather by CustomWeather, © 2017

Note: Actual official high and low records may vary slightly from our data, if they occured in-between our weather recording intervals... More about our weather records

Advertising

Kranj Weather History for the Previous 24 Hours

Scroll right to see more
 ConditionsComfort  
Time TempWeatherWind HumidityBarometerVisibility
8:00 am
Wed, Jan 18
27 °FPartly sunny.5 mph80%30.36 "HgN/A
7:30 am27 °FPassing clouds.2 mph80%30.36 "HgN/A
7:00 am27 °FPassing clouds.5 mph80%30.36 "HgN/A
6:30 am27 °FPassing clouds.2 mph80%30.33 "HgN/A
6:00 am27 °FPassing clouds.3 mph80%30.33 "HgN/A
5:30 am27 °FPassing clouds.5 mph80%30.33 "HgN/A
5:00 am27 °FPassing clouds.5 mph80%30.33 "HgN/A
4:00 am27 °FPassing clouds.6 mph86%30.33 "HgN/A
3:30 am27 °FPassing clouds.2 mph86%30.33 "HgN/A
3:00 am27 °FPassing clouds.2 mph80%30.33 "HgN/A
2:30 am27 °FPartly cloudy.6 mph80%30.33 "HgN/A
2:00 am27 °FPassing clouds.3 mph80%30.33 "HgN/A
1:30 am27 °FPassing clouds.3 mph80%30.33 "HgN/A
1:00 am25 °FPassing clouds.7 mph86%30.30 "HgN/A
12:30 am25 °FPassing clouds.1 mph86%30.30 "HgN/A
12:00 am25 °FPassing clouds.2 mph86%30.30 "HgN/A
11:30 pm
Tue, Jan 17
25 °FPassing clouds.5 mph86%30.30 "HgN/A
11:00 pm25 °FPassing clouds.3 mph80%30.30 "HgN/A
10:30 pm27 °FPassing clouds.2 mph80%30.30 "HgN/A
10:00 pm25 °FPassing clouds.6 mph80%30.30 "HgN/A
9:30 pm27 °FPassing clouds.2 mph74%30.30 "HgN/A
9:00 pm28 °FPassing clouds.8 mph69%30.30 "HgN/A
8:30 pm28 °FPassing clouds.9 mph74%30.30 "HgN/A
8:00 pm28 °FPassing clouds.10 mph74%30.30 "HgN/A
7:30 pm30 °FPassing clouds.12 mph69%30.27 "HgN/A
7:00 pm30 °FPassing clouds.10 mph64%30.27 "HgN/A
6:30 pm32 °FPartly cloudy.15 mph60%30.24 "HgN/A
6:00 pm32 °FPartly cloudy.10 mph60%30.24 "HgN/A
5:30 pm32 °FPassing clouds.9 mph55%30.24 "HgN/A
5:00 pm32 °FMostly cloudy.10 mph64%30.21 "HgN/A
4:30 pm32 °FPartly sunny.13 mph60%30.21 "HgN/A
4:00 pm34 °FPartly sunny.14 mph51%30.21 "HgN/A
3:30 pm34 °FPartly sunny.8 mph51%30.18 "HgN/A
3:00 pm34 °FPartly sunny.8 mph51%30.18 "HgN/A
2:30 pm36 °FPartly sunny.13 mph44%30.18 "HgN/A
2:00 pm36 °FPartly sunny.10 mph44%30.18 "HgN/A
1:30 pm36 °FPartly sunny.7 mph44%30.15 "HgN/A
1:00 pm36 °FPartly sunny.10 mph44%30.15 "HgN/A
12:30 pm37 °FScattered clouds.5 mph38%30.15 "HgN/A
12:00 pm36 °FScattered clouds.3 mph48%30.15 "HgN/A
11:30 am37 °FScattered clouds.5 mph38%30.15 "HgN/A
11:00 am36 °FPartly sunny.2 mph48%30.18 "HgN/A
10:30 am34 °FPartly sunny.3 mph51%30.18 "HgN/A
10:00 am30 °FPartly sunny.5 mph69%30.18 "HgN/A
9:30 am28 °FBroken clouds.3 mph74%30.15 "HgN/A
9:00 am27 °FBroken clouds.3 mph80%30.15 "HgN/A
Weather by CustomWeather, © 2017

See weather overviewHow to use our weather pages